Regional Weather Roundup
Issued by NWS Cleveland, OH

Home | Current Version | Previous Version | Graphics & Text | Print | Product List | Glossary On
Versions: 1 2 3 4 5 6 7 8 9 10 11 12 13 14 15 16 17 18 19 20 21 22 23 24 25 26 27 28 29 30 31 32 33 34 35 36 37 38 39 40 41 42 43 44 45 46 47 48 49 50
000
ASUS41 KCLE 160010
RWRCLE
OHIO REGIONAL WEATHER ROUNDUP
NATIONAL WEATHER SERVICE WILMINGTON, OH
800 PM EDT MON SEP 15 2014

NOTE: "FAIR" INDICATES FEW OR NO CLOUDS BELOW 12,000 FEET WITH NO
SIGNIFICANT WEATHER AND/OR OBSTRUCTIONS TO VISIBILITY.

OHZ001>008-015>018-024>027-034-035-043-044-160100-
   NORTHWEST OHIO

CITY           SKY/WX    TMP DP  RH WIND       PRES   REMARKS
DEFIANCE       LGT RAIN  55  53  93 CALM      30.10S FOG
FINDLAY        CLOUDY    58  54  86 NW6       30.08S
TOLEDO EXPRESS LGT RAIN  54  52  93 W8        30.10S FOG
TOLEDO METCALF LGT RAIN  55  52  89 NW8       30.10R
LIMA           CLOUDY    59  56  89 N7        30.08S
$$

OHZ009>014-019>023-028>033-038-089-160100-
   NORTHEAST OHIO

CITY           SKY/WX    TMP DP  RH WIND       PRES   REMARKS
CLE-HOPKINS    CLOUDY    58  54  86 W3        30.08F
CLE-LAKEFRONT  CLOUDY    60  54  80 CALM      30.05S
CUY CO. ARPT   CLOUDY    59  59 100 CALM      30.06F
LORAIN-ELYRIA  CLOUDY    61  55  81 CALM      30.07F
ASHTABULA      CLOUDY    58  55  90 CALM      30.06F
AKRON-CANTON   CLOUDY    62  52  69 CALM      30.05F
WOOSTER        CLOUDY    59  53  80 N6        30.06F
MANSFIELD      CLOUDY    58  55  90 N6        30.07S
YOUNGSTOWN     LGT RAIN  58  56  93 E3        30.04F
$$

OHZ042-051>053-060>062-070>072-077>081-160100-
  SOUTHWEST OHIO

CITY           SKY/WX    TMP DP  RH WIND       PRES   REMARKS
CINC-COVINGTON RAIN      58  55  90 S9        30.08S FOG
CINC-LUNKEN    RAIN      60  54  80 S6        30.09R
HAMILTON       LGT RAIN  61  57  87 VRB3      30.04F
DAYTON         MOCLDY    60  56  86 W5        30.08F
WRIGHT-PAT AFB MOCLDY    60  55  83 SW5       30.08S
DAYTON GENERAL MOCLDY    60  54  80 CALM      30.06F
WILMINGTON     CLOUDY    61  54  77 W9        30.08R
$$

OHZ036-037-039>041-045>050-054>059-063>069-073>076-082>088-160100-
  CENTRAL AND SOUTHEAST OHIO

CITY           SKY/WX    TMP DP  RH WIND       PRES   REMARKS
COLUMBUS       CLOUDY    67  50  54 W7        30.05R
OSU AIRPORT    CLOUDY    63  51  65 W9        30.06R
BOLTON FIELD   CLOUDY    62  53  73 NW6       30.07R
RICKENBACK AFB CLOUDY    63  54  72 W9        30.05R
NEWARK         CLOUDY    63  51  65 SW3       30.04R
MARION         CLOUDY    61  56  83 N7        30.07R
LANCASTER      CLOUDY    65  51  60 SW6       30.04F
ZANESVILLE     CLOUDY    65  51  60 S6        30.04F
NEW PHILLY     CLOUDY    63  52  67 CALM      30.05F
$$


USA.gov is the U.S. government's official web portal to all federal, state and local government web resources and services.